Theta_e
290 291 292 291 292 293 290 291 287 289 290 294 297 298 299 301 299 300 299 301 303 304 305 307 309 312 313 315 317 318 318 318 319 320 321 320 320 320 320 319 318 313 311 308
285 292 290 288 291 292 293 292 290 291 290 297 300 299 299 300 300 300 300 301 303 305 306 308 311 313 314 313 313 317 317 318 319 316 317 317 316 313 311 309 308 309 306 303
281 286 288 282 288 291 293 294 294 290 294 298 298 299 299 301 301 301 301 301 301 304 308 310 314 315 314 313 315 316 316 316 316 315 315 312 310 308 306 304 302 301 301 301
281 283 276 287 293 293 293 295 296 296 297 299 299 300 301 303 303 302 302 301 301 302 307 311 312 311 311 313 314 316 316 315 314 312 308 306 305 303 300 300 299 298 297 298
278 279 284 286 291 292 289 290 297 296 297 298 299 297 295 300 302 303 304 304 304 303 308 311 311 310 310 308 310 311 309 309 308 307 305 303 300 298 296 296 295 294 295 295
283 276 274 285 293 298 298 288 297 300 296 297 298 291 294 299 301 301 302 301 305 307 309 310 308 309 307 305 305 306 306 304 305 304 302 299 295 294 291 292 291 292 289 288
283 281 282 292 296 300 286 287 299 302 300 299 293 298 300 299 299 301 302 305 307 308 308 308 307 307 304 303 302 301 300 299 299 299 297 294 292 292 290 290 289 288 285 285
284 281 279 296 298 291 295 299 301 303 301 299 300 299 300 300 301 303 303 304 306 305 302 304 305 304 301 298 298 298 297 295 295 295 294 293 291 291 290 289 286 284 282 280
285 284 294 300 299 301 301 301 302 302 303 302 300 299 300 300 301 302 302 302 303 301 298 299 300 302 297 296 297 296 295 294 293 293 292 292 290 289 287 286 285 283 281 279
288 292 294 297 300 301 303 303 304 304 303 303 301 300 299 299 299 299 299 299 299 299 297 296 297 297 297 297 296 295 293 290 289 286 284 285 285 286 284 284 284 282 280 278
289 293 296 298 299 301 303 304 303 305 303 304 303 301 299 299 299 299 298 298 298 297 295 294 295 295 295 295 294 289 286 285 283 281 281 281 281 282 281 281 283 281 279 277
285 294 294 296 299 301 301 301 304 303 303 303 304 304 301 299 299 298 297 297 294 294 293 292 292 290 290 291 289 285 283 282 280 280 279 279 278 279 282 282 282 282 281 279
292 293 295 297 301 299 300 300 303 303 301 300 302 304 300 297 298 293 291 288 288 287 287 286 285 284 285 286 285 283 281 281 280 280 279 278 278 278 276 279 281 280 280 279
292 293 295 296 293 293 293 295 292 290 289 291 297 299 296 291 287 286 285 284 284 283 282 282 282 281 283 283 283 282 282 282 281 281 280 279 279 279 279 277 276 277 279 279
290 293 292 293 290 287 288 288 285 284 283 282 283 285 284 281 280 280 281 281 281 280 280 280 279 280 281 282 281 280 280 279 279 279 279 279 279 279 279 278 278 277 277 277
288 291 291 288 286 284 283 282 281 280 280 279 278 278 278 278 278 278 278 279 278 277 278 278 278 279 281 281 280 279 279 279 278 278 278 277 277 277 277 276 276 275 275 274
285 285 284 285 284 282 281 281 280 279 278 278 277 278 277 276 276 275 275 276 275 275 276 276 276 278 278 278 278 277 277 277 276 276 275 275 274 274 274 274 273 272 271 271
284 283 282 282 281 279 279 279 278 278 277 277 276 275 275 274 273 273 273 274 273 273 274 275 275 276 276 276 276 276 275 275 274 273 273 273 273 273 272 272 271 271 271 271
279 279 279 279 278 277 277 276 276 276 276 275 274 273 273 273 272 272 272 271 271 270 271 274 276 275 274 275 274 274 273 273 272 272 272 271 270 270 270 270 269 269 268 267
277 277 277 276 277 277 276 276 276 275 275 274 273 272 271 271 271 270 270 268 270 271 272 273 273 273 273 273 273 272 271 271 271 270 270 269 268 268 268 267 267 265 263 263
275 275 275 274 274 275 275 275 274 273 273 273 272 271 271 271 271 271 269 268 269 271 271 272 272 272 272 272 271 270 269 269 268 267 265 265 264 263 262 262 262 261 258 257
274 274 273 273 273 273 274 274 273 273 273 273 273 272 270 269 269 269 269 268 269 270 270 270 270 269 269 269 269 267 267 266 265 264 263 263 261 259 258 257 256 255 253 252
275 274 274 273 273 273 273 273 273 272 271 271 270 270 270 271 270 268 266 269 270 269 269 267 267 266 265 265 264 263 262 261 261 260 258 256 255 253 252 252 252 250 251 254
273 273 273 274 274 273 271 272 272 272 271 271 270 270 270 267 267 268 268 266 265 265 264 263 262 261 260 260 259 257 256 254 252 250 252 249 246 246 246 246 248 248 248 249
271 271 271 271 270 271 271 271 270 270 269 269 269 270 270 269 266 266 266 265 265 263 262 259 258 256 254 253 252 250 249 248 248 247 246 246 245 245 245 246 246 246 245 245
270 268 268 268 268 268 269 269 266 266 266 265 265 264 264 266 266 265 263 261 261 259 257 253 253 253 252 251 248 247 248 251 249 248 246 245 245 246 245 246 244 244 243 242
267 267 267 266 266 265 265 264 264 262 259 257 260 261 262 263 261 260 256 255 254 252 250 249 248 250 249 247 248 248 248 248 247 248 244 244 245 245 245 244 242 242 241 241
Wind_Speed
5 6 10 15 17 18 16 12 14 7 11 10 10 10 11 11 6 7 8 8 7 7 11 11 11 13 15 17 15 14 16 17 20 18 15 12 12 12 12 11 12 8 8 7
4 6 2 13 20 19 19 14 9 6 8 8 11 6 6 8 9 9 9 10 11 10 8 9 12 14 12 10 10 14 16 17 13 9 9 9 8 8 8 7 7 7 8 10
5 2 6 8 5 13 17 17 9 12 10 7 7 9 11 13 10 12 13 11 11 11 15 11 12 10 9 7 7 10 11 9 9 8 9 9 9 9 8 9 10 9 9 9
5 1 3 10 3 14 18 20 15 8 6 9 8 9 10 11 12 12 10 10 10 10 10 10 6 5 8 7 8 9 8 8 9 10 10 10 11 9 8 7 9 8 8 8
2 3 7 10 6 2 8 24 23 15 10 9 8 5 7 9 12 16 15 15 13 11 6 9 11 10 10 8 9 11 9 9 9 10 11 10 10 10 8 9 7 6 6 7
3 3 7 18 5 12 12 21 5 7 9 12 6 9 6 11 8 11 11 6 7 6 6 12 11 12 12 10 10 10 10 9 10 9 10 8 8 8 4 6 7 8 8 7
5 5 10 8 1 6 1 8 16 10 10 10 5 12 10 8 10 6 5 6 8 9 11 10 12 13 11 11 9 7 8 9 8 8 8 9 8 7 7 8 10 10 10 9
5 4 10 5 3 8 5 23 15 12 9 9 8 10 7 10 8 7 8 8 8 9 9 9 11 12 11 10 9 10 10 9 9 9 7 7 10 8 9 10 11 9 10 9
10 9 7 5 3 7 7 8 17 9 12 7 10 8 7 6 5 6 8 8 6 11 10 7 7 10 13 8 12 13 12 10 10 10 8 7 9 9 8 9 9 8 7 7
2 8 11 12 12 9 8 6 20 15 11 7 6 7 3 5 7 6 5 6 6 11 11 9 8 9 11 11 12 13 13 11 9 11 10 9 7 6 7 7 7 7 7 7
8 10 7 12 10 8 11 10 11 13 9 7 7 4 2 2 6 7 6 6 7 8 11 10 10 11 10 11 14 13 13 11 10 9 10 11 10 6 6 5 4 7 5 7
5 5 4 8 7 9 8 8 8 10 7 6 5 4 5 4 4 7 9 8 10 10 12 11 11 11 10 10 13 14 12 9 8 8 8 8 10 11 19 17 19 18 15 11
6 13 12 15 5 11 5 6 6 7 10 13 11 1 6 3 6 15 13 13 12 11 12 11 13 13 10 10 12 13 13 11 9 9 8 8 8 8 10 13 19 19 18 17
8 10 4 8 9 14 13 11 8 11 12 13 12 7 16 15 14 16 15 14 15 15 15 13 15 15 11 12 15 15 14 15 10 8 8 8 7 7 6 6 6 5 10 11
11 8 7 9 10 14 13 12 14 14 13 16 16 15 15 20 20 17 15 15 16 20 17 16 16 16 13 13 16 15 12 10 9 8 8 8 7 7 5 4 4 5 5 5
14 6 9 9 10 12 13 13 12 11 11 14 15 17 18 19 21 20 17 15 17 17 17 16 16 13 13 14 15 12 12 15 11 7 7 7 6 5 4 4 4 3 3 3
6 5 10 9 10 12 13 11 12 11 12 14 15 15 18 19 20 20 17 17 19 17 15 14 13 13 13 13 12 8 8 9 11 8 7 6 6 6 6 5 4 4 4 4
7 7 8 8 9 9 13 12 13 13 15 13 13 15 18 18 17 16 14 15 18 19 16 13 13 14 14 13 11 8 8 8 8 7 6 6 6 6 6 5 5 4 3 4
10 12 12 14 11 12 12 14 14 15 13 12 15 18 17 16 15 14 14 16 16 15 12 12 16 15 14 14 10 8 8 8 8 7 6 6 6 5 4 4 5 5 5 5
14 13 14 16 16 15 14 12 13 14 11 14 16 17 17 16 15 16 16 18 14 9 10 11 12 12 12 12 11 8 8 8 7 6 6 6 6 6 5 6 5 4 3 3
14 15 17 17 17 16 15 13 13 16 14 15 16 15 15 13 12 11 13 12 11 11 12 14 11 9 8 9 9 7 7 7 7 7 6 6 6 6 5 4 4 3 2 2
12 13 16 17 16 16 15 14 14 14 15 14 14 15 15 14 14 15 13 11 7 11 8 8 9 12 9 11 7 7 8 7 6 5 5 5 5 4 3 3 3 2 2 2
11 13 14 13 13 13 13 13 14 14 14 13 13 12 12 9 7 8 9 9 7 9 8 8 10 12 11 7 6 6 7 6 5 5 4 3 3 3 3 3 3 3 3 2
13 13 12 11 12 13 15 13 14 14 13 14 13 11 9 8 9 8 8 8 10 10 8 7 9 10 8 5 5 5 5 4 4 3 3 4 3 2 3 2 3 3 3 3
11 11 11 11 11 9 11 10 11 11 12 12 12 11 12 8 6 5 6 7 11 9 7 8 9 8 5 4 4 4 3 3 3 3 3 2 1 2 1 0 1 2 3 3
11 9 8 11 8 7 7 7 8 7 7 8 7 7 7 6 7 7 6 7 6 7 5 4 4 4 4 4 3 4 3 3 3 2 2 1 1 0 1 3 3 3 3 3
9 9 7 8 7 7 6 6 7 6 5 4 5 5 6 6 6 6 6 5 4 4 4 3 3 4 3 3 3 2 2 2 2 1 1 1 2 2 3 3 3 4 3 3
Wind_Direction
204 259 339 320 297 276 262 240 219 212 219 233 227 230 226 214 234 238 223 223 211 219 198 196 198 203 206 214 209 196 198 203 208 208 206 204 201 198 202 201 200 181 169 154
270 243 6 311 294 285 274 271 276 260 251 224 236 230 286 236 214 219 230 209 214 203 226 184 196 202 199 203 189 179 192 200 188 167 163 172 168 158 150 151 142 147 144 145
251 358 340 300 332 316 281 261 229 244 239 228 244 230 236 246 219 216 224 222 214 193 201 204 204 192 184 172 146 167 181 171 172 156 162 151 152 148 150 143 135 133 138 144
260 360 225 261 300 304 285 272 249 234 221 231 231 247 231 234 233 231 224 223 230 220 186 196 165 132 120 129 135 136 151 148 142 144 140 139 141 140 127 135 130 130 123 124
215 204 285 285 207 81 34 308 298 234 217 238 261 289 289 229 219 226 227 227 219 214 164 154 151 139 132 132 132 131 139 139 136 143 144 147 142 136 126 120 114 116 121 122
162 197 246 280 193 58 19 284 247 306 286 242 207 250 251 271 227 233 223 213 178 134 127 145 148 141 139 144 134 140 147 138 135 135 134 125 118 114 81 88 100 93 82 76
212 242 278 272 242 103 133 298 315 320 306 289 242 253 217 249 255 226 212 165 123 142 153 153 145 140 139 133 133 127 119 114 113 110 109 107 97 98 99 101 94 90 84 69
201 222 274 225 93 141 180 290 286 293 289 297 284 288 259 250 254 187 160 144 148 132 125 134 141 134 127 113 116 115 111 101 98 95 99 100 106 103 104 109 107 99 94 77
194 209 219 229 258 219 189 235 280 273 279 299 310 311 325 332 268 212 172 145 126 125 117 90 98 127 119 129 123 116 107 105 101 94 89 94 111 110 105 113 117 115 113 111
112 251 262 271 240 230 202 173 276 276 288 306 301 316 315 56 43 13 9 74 89 113 110 97 90 88 114 121 113 111 108 100 93 91 82 69 65 79 104 117 124 129 132 128
260 285 299 279 248 242 227 232 249 280 264 274 289 345 30 72 96 90 56 39 69 96 97 88 93 95 104 112 113 104 99 98 92 88 90 85 66 59 77 44 108 140 129 130
239 38 281 271 328 312 226 242 241 252 301 300 278 318 63 39 74 92 84 80 74 73 86 88 87 83 84 99 111 111 101 95 99 103 102 102 102 88 70 82 88 94 103 110
301 312 292 274 269 359 7 353 324 338 1 331 312 128 109 67 87 97 76 64 58 73 80 79 77 73 70 87 100 103 110 112 107 106 107 109 107 108 106 78 86 93 101 108
333 346 1 1 338 352 4 8 26 40 29 8 354 20 100 87 64 64 65 90 86 74 65 60 69 65 66 86 91 91 92 93 95 95 95 94 96 100 111 124 126 115 112 120
350 9 346 322 3 14 15 13 29 30 26 34 36 50 54 81 74 66 71 70 78 78 71 68 65 58 58 70 80 79 78 74 74 76 75 77 77 80 86 93 108 127 132 112
322 15 356 11 16 20 27 36 45 37 52 57 58 60 69 70 74 74 66 66 73 66 74 72 67 56 55 58 67 70 70 74 73 72 72 75 75 79 75 79 74 69 90 98
338 12 350 2 25 31 37 43 51 49 59 69 73 76 78 77 77 73 69 64 70 65 59 62 61 58 61 66 70 70 73 71 74 70 65 63 63 68 67 59 63 65 68 56
31 44 40 40 43 51 51 53 63 64 66 72 80 82 80 76 78 77 74 72 69 61 53 55 59 61 60 60 64 67 69 70 69 67 63 62 66 62 61 64 58 64 61 65
44 54 50 53 55 63 62 60 59 63 64 69 73 71 73 73 74 73 71 67 66 67 47 53 61 62 61 58 61 63 67 71 70 67 68 72 65 65 64 60 65 55 56 55
61 61 67 66 56 59 66 63 69 70 68 72 75 73 72 70 73 72 68 66 56 60 58 54 60 63 63 58 59 61 62 62 68 66 56 61 63 57 56 59 66 66 60 59
57 56 58 57 57 54 56 60 67 65 62 64 71 73 74 70 66 71 72 70 49 51 52 51 57 58 58 61 59 58 58 60 60 57 54 53 57 53 47 45 44 37 19 26
59 64 63 61 60 58 55 58 63 67 67 68 68 75 78 74 72 68 59 68 58 51 54 56 56 57 59 59 58 61 62 61 59 58 54 56 57 56 44 32 22 1 12 10
65 66 68 67 70 73 66 59 61 64 66 63 64 64 64 66 67 75 77 61 65 62 66 64 63 60 54 51 54 56 57 58 59 64 63 59 55 49 41 20 7 13 23 28
61 59 62 68 72 69 66 60 64 63 65 64 57 52 71 79 69 63 75 69 65 64 61 62 53 53 52 49 53 57 60 63 63 59 61 64 60 51 44 29 37 5 1 342
60 57 53 55 58 58 70 67 66 60 60 60 57 59 65 54 77 75 70 65 65 67 60 47 55 55 54 53 56 60 57 58 63 76 64 59 31 44 48 49 312 307 306 299
57 56 54 50 51 50 54 62 66 53 65 67 49 37 43 50 61 65 62 57 60 63 58 37 46 50 47 46 53 62 76 78 69 59 65 42 77 164 311 324 318 310 296 287
55 50 56 54 41 43 51 60 76 65 47 59 69 23 50 59 58 64 59 56 53 47 43 34 39 40 41 43 58 53 36 33 43 78 59 56 23 343 317 295 285 286 293 288